STARLINK-5416, 54855

Orbit data source: Space-Track

STARLINK-5416, 54855 is a payload satellite owned by SpaceX/Seattle (US) in LEO that was launched on Wed, 28 Dec 2022 UTC via an FALCON 9 launch vehicle from the Air Force Eastern Test Range (AFETR). Payload-class satellites include a variety of spacecraft equipped with specific instruments for various scientific and technological missions. These include communications satellites like Starlink; space stations such as the ISS; scientific satellites like the Hubble; Earth observation satellites from companies like Planet Labs, Umbra, and HawkEye 360; GPS; miniature CubeSats for education and research; and military/defense satellites.

Loading next visibility...
Identifier
54855, 2022-177AM
Orbit
LEO
Country
Flag of USUS
Related business
Manufacturer
SpaceX/Seattle
Mission
Operational Commercial Communications
Bus & Motor
STARLINK, Unknown motor
Mass
305 kg wet, ~290 kg dry
Launch date (UTC)
2022-12-28 (3 years ago)
Launch vehicle
FALCON 9
Launch site
Air Force Eastern Test Range (AFETR)
Object type
Payload
Rocket body
Debris
Shape & HBR
Box + 1 Pan, 10.1 m
Radar Cross Section
13.562 m², Large (>1 m²)

Expand to show TLE details & history
Last TLE update: 2 days ago

TLE from 2 days ago
0 STARLINK-5416
1 54855U 22177AM  26171.28061544 -.00003531  00000-0 -11898-3 0  9997
2 54855  42.9994 261.9398 0002179 285.1861  74.8750 15.27543918192787
Epoch: 2026-06-20T06:44Z
TLE epoch observation values (Epoch: 2026-06-20T06:44:05.174Z)
Latitude
0.00003°
Longitude
-107.57922°
Altitude
482.543 km
Speed
7.626 km/s
True Right ascension
17h 27m 45s
True Declination
0° 00' 00"
Sunlit
Object was in full shadow at epoch
Visualization orbit readout
Latitude
Unknown
Longitude
Unknown
Altitude
Unknown
Speed
Unknown
Apparent Right ascension
Unknown
Apparent Declination
Unknown
Sunlit
N/A
Visualization observer readout
Local Sidereal Time
21:35:07
Azimuth
Unknown
Elevation
Unknown
Doppler factor
Unknown
Orbital elements
Apogee altitude
486.598 km
Perigee altitude
483.607 km
Semi-major axis
6,863.239 km
Eccentricity
0.00022
Inclination
42.9994°
RAAN
261.9398°
Arg. of periapsis
285.1861°
True anomaly
74.89911°
Mean anomaly
74.875°
Eccentric anomaly
74.88705°
Mean motion
3.81724 °/min
Orbital period
94.31 mins
BSTAR
-0.00011898
Loading maneuver chart data...
Computing Atmospheric mass density...
Loading historical data...
Loading historical data...
Loading historical data...
Loading historical data...
Loading historical data...
Loading historical data...
Loading historical data...

Documentation

Showing up to 5 results
|